Date,TemperatureHighF,TemperatureAvgF,TemperatureLowF,DewpointHighF,DewpointAvgF,DewpointLowF,HumidityHigh,HumidityAvg,HumidityLow,PressureMaxIn,PressureMinIn,WindSpeedMaxMPH,WindSpeedAvgMPH,GustSpeedMaxMPH,PrecipitationSumIn
2013-5-1,61.0,48.9,37.0,49.8,43.4,34.0,96,82,64,30.54,30.42,12,2,15,0.00
2013-5-2,69.6,52.1,38.5,52.2,41.0,34.0,97,72,30,30.52,30.41,11,2,12,0.00
2013-5-3,50.5,45.7,37.6,44.6,41.7,35.4,95,86,77,30.53,30.40,17,4,25,0.00
2013-5-4,52.9,46.9,43.0,43.3,41.1,38.5,94,81,63,30.41,30.35,16,3,19,0.00
2013-5-5,55.8,48.2,43.0,45.5,42.9,40.3,93,83,65,30.36,30.30,17,3,17,0.00
2013-5-6,62.1,49.4,42.8,53.2,46.3,41.7,97,90,72,30.35,30.22,11,3,12,0.00
2013-5-7,65.5,55.8,46.6,60.4,53.7,45.9,98,93,82,30.25,30.18,12,3,13,0.00
2013-5-8,69.8,59.4,51.1,63.3,57.0,50.0,98,92,77,30.26,30.10,17,4,19,0.11
2013-5-9,65.1,58.3,53.8,62.8,57.0,52.3,99,96,90,30.10,29.94,13,4,18,0.09
2013-5-10,75.9,62.9,53.4,61.2,56.2,52.5,98,81,53,30.02,29.94,14,3,16,0.00
2013-5-11,65.8,59.5,55.0,60.4,57.6,53.4,98,94,80,30.01,29.78,21,6,24,0.60
2013-5-12,64.6,58.7,49.3,60.8,54.8,41.4,99,88,65,29.87,29.65,18,5,21,0.14
2013-5-13,55.8,49.4,37.0,42.8,37.3,30.6,95,65,42,30.06,29.87,22,4,24,0.00
2013-5-14,55.0,49.8,44.8,43.2,37.7,32.2,86,64,45,30.10,30.03,14,3,17,0.00
2013-5-15,61.2,51.0,36.3,55.6,44.1,34.3,97,79,41,30.13,29.75,25,6,33,0.00
2013-5-16,74.1,63.0,50.4,55.2,49.9,44.8,97,66,37,29.83,29.71,17,4,22,0.00
2013-5-17,62.4,56.0,46.0,49.6,45.4,41.7,91,69,49,30.27,29.83,17,3,17,0.00
2013-5-18,66.0,55.1,41.7,52.9,47.8,40.1,97,78,49,30.37,30.27,12,3,14,0.00
2013-5-19,67.5,57.7,45.7,55.0,50.0,44.2,97,78,51,30.41,30.30,17,4,19,0.08
2013-5-20,74.3,63.1,56.1,66.4,60.2,55.0,98,91,76,30.30,29.97,14,5,16,0.24
2013-5-21,77.7,62.4,54.1,69.4,59.7,53.1,98,91,74,30.02,29.89,15,3,17,0.00
2013-5-22,70.9,58.9,51.6,64.8,57.0,50.5,98,94,79,30.02,29.95,15,4,16,0.00
2013-5-23,70.3,64.9,61.0,66.7,63.3,60.3,98,94,88,30.00,29.92,23,9,25,0.10
2013-5-24,65.1,61.4,53.2,64.6,60.8,52.7,98,98,97,29.92,29.72,33,7,41,1.22
2013-5-25,54.3,50.2,42.6,52.7,48.9,41.4,98,95,88,29.79,29.72,18,5,24,0.07
2013-5-26,58.8,49.2,41.4,44.1,41.2,38.5,95,75,52,30.15,29.78,13,2,16,0.00
2013-5-27,70.9,57.3,45.9,47.8,43.5,34.3,87,63,27,30.22,30.12,15,3,22,0.00
2013-5-28,68.2,57.2,44.1,57.0,50.6,42.4,97,80,55,30.30,30.22,12,3,14,0.00
2013-5-29,66.9,59.8,57.0,63.5,58.2,55.9,97,95,87,30.27,30.07,20,6,21,0.51
2013-5-30,84.0,70.8,60.4,72.0,65.1,59.5,97,83,63,30.14,30.04,13,3,13,0.08
2013-5-31,90.3,75.0,60.8,70.9,64.5,58.8,95,72,47,30.14,30.00,16,4,16,0.00